This demonstration page uses our WeatherBlox Daily Observations layout. Learn more.

Left ArrowRight Arrow

Hourly Observations for July 8, 2017

Temp ( °F °C ) Dew Point ( °F °C ) Humidity (%) Winds ( mph kmh ) Pressure ( in mb ) Visibility ( mi km ) Precip ( " mm )
12:15 am 00:15 Clear 65 18.4 58 14.7 79 79 SSE 6 9 30.06 1018 10 16 0.00 0.00
12:35 am 00:35 Clear 65 18.4 59 14.8 80 80 SE 3 6 30.06 1018 10 16 0.00 0.00
12:55 am 00:55 Clear 65 18.3 59 15 81 81 Calm 30.06 1018 10 16 0.00 0.00
1:15 am 01:15 Clear 65 18.6 59 14.8 79 79 Calm 30.06 1018 10 16 0.00 0.00
1:35 am 01:35 Clear 66 18.7 58 14.6 77 77 Calm 30.06 1018 10 16 0.00 0.00
1:55 am 01:55 Clear 64 18 58 14.2 79 79 Calm 30.06 1018 10 16 0.00 0.00
2:15 am 02:15 Clear 61 16 57 13.9 87 87 WNW 5 7 30.09 1019 10 16 0.00 0.00
2:35 am 02:35 Clear 60 15.8 57 13.9 89 89 W 3 6 30.09 1019 10 16 0.00 0.00
2:55 am 02:55 Clear 61 16.1 57 13.9 87 87 WSW 3 6 30.09 1019 10 16 0.00 0.00
3:15 am 03:15 Clear 61 16 57 14 88 88 SW 6 9 30.09 1019 10 16 0.00 0.00
3:35 am 03:35 Clear 62 16.9 57 14 83 83 Calm 30.09 1019 10 16 0.00 0.00
3:55 am 03:55 Clear 63 17 57 14 83 83 Calm 30.06 1018 10 16 0.00 0.00
4:15 am 04:15 Clear 61 16 58 14.4 90 90 Calm 30.09 1019 10 16 0.00 0.00
4:35 am 04:35 Clear 61 16 58 14.3 90 90 SE 3 6 30.09 1019 10 16 0.00 0.00
4:55 am 04:55 Clear 62 16.7 57 14.1 85 85 WSW 5 7 30.09 1019 10 16 0.00 0.00
5:15 am 05:15 Clear 64 18 57 14 78 78 SSW 6 9 30.06 1018 10 16 0.00 0.00
5:35 am 05:35 Clear 64 17.9 56 13.6 76 76 S 9 15 30.06 1018 10 16 0.00 0.00
5:55 am 05:55 Clear 66 18.7 57 13.9 74 74 SSW 14 22 30.03 1017 10 16 0.00 0.00
6:15 am 06:15 Clear 66 18.9 57 14 73 73 SSW 6 9 30.03 1017 10 16 0.00 0.00
6:35 am 06:35 Sunny 65 18.6 58 14.4 77 77 SSW 3 6 30.03 1017 10 16 0.00 0.00
6:55 am 06:55 Sunny 65 18.2 58 14.6 80 80 Calm 30.03 1017 10 16 0.00 0.00
7:15 am 07:15 Sunny 67 19.6 60 15.8 79 79 Calm 30.03 1017 10 16 0.00 0.00
7:35 am 07:35 Sunny 67 19.3 61 16.1 82 82 NNW 3 6 30.03 1017 10 16 0.00 0.00
7:55 am 07:55 Sunny 69 20.5 61 16.2 76 76 WNW 3 6 30.03 1017 10 16 0.00 0.00
8:15 am 08:15 Sunny 71 21.8 62 16.5 72 72 WNW 3 6 30.00 1016 10 16 0.00 0.00
8:35 am 08:35 Sunny 73 22.5 62 16.7 70 70 WSW 6 9 30.00 1016 10 16 0.00 0.00
8:55 am 08:55 Sunny 74 23.4 63 17.1 68 68 W 7 11 30.00 1016 10 16 0.00 0.00
9:15 am 09:15 Sunny 75 24 63 17.2 66 66 W 8 13 30.00 1016 10 16 0.00 0.00
9:35 am 09:35 Sunny 77 24.9 64 17.7 64 64 W 8 13 29.97 1015 10 16 0.00 0.00
9:55 am 09:55 Sunny 79 26.2 64 17.5 59 59 W 9 15 29.97 1015 10 16 0.00 0.00
10:15 am 10:15 Sunny 81 27.2 62 16.8 53 53 W 10 17 29.97 1015 10 16 0.00 0.00
10:35 am 10:35 Sunny 82 27.7 63 17.1 52 52 W 9 15 29.97 1015 10 16 0.00 0.00
10:55 am 10:55 Sunny 83 28.4 62 16.8 49 49 W 8 13 29.94 1014 10 16 0.00 0.00
11:15 am 11:15 Sunny 84 28.7 62 16.7 48 48 WNW 8 13 29.94 1014 10 16 0.00 0.00
11:35 am 11:35 Sunny 85 29.3 63 17.3 48 48 WNW 3 6 29.94 1014 10 16 0.00 0.00
11:55 am 11:55 Sunny 86 29.8 62 16.6 45 45 WNW 5 7 29.94 1014 10 16 0.00 0.00
12:15 pm 12:15 Sunny 87 30.5 62 16.6 43 43 NNW 7 11 29.94 1014 10 16 0.00 0.00
12:35 pm 12:35 Sunny 87 30.5 62 16.9 44 44 N 5 7 29.94 1014 10 16 0.00 0.00
12:55 pm 12:55 Sunny 88 30.9 61 16.1 41 41 Calm 29.94 1014 10 16 0.00 0.00
1:15 pm 13:15 Sunny 88 30.9 61 16.1 41 41 NNE 3 6 29.91 1013 10 16 0.00 0.00
1:35 pm 13:35 Sunny 89 31.6 60 15.7 38 38 N 3 6 29.88 1012 10 16 0.00 0.00
1:55 pm 13:55 Sunny 90 32 59 14.8 35 35 Calm 29.88 1012 10 16 0.00 0.00
2:15 pm 14:15 Sunny 90 32.3 56 13.6 32 32 Calm 29.88 1012 10 16 0.00 0.00
2:35 pm 14:35 Sunny 91 33 53 11.6 27 27 Calm 29.88 1012 10 16 0.00 0.00
2:55 pm 14:55 Partly Cloudy 92 33.1 56 13.5 30 30 SW 3 6 29.85 1011 10 16 0.00 0.00
3:15 pm 15:15 Sunny 92 33.2 57 14 31 31 SW 3 6 29.85 1011 10 16 0.00 0.00
3:35 pm 15:35 Sunny 92 33.5 56 13.2 29 29 ESE 3 6 29.85 1011 10 16 0.00 0.00
3:55 pm 15:55 Sunny 94 34.2 57 13.9 29 29 S 8 13 29.85 1011 10 16 0.00 0.00
4:15 pm 16:15 Sunny 93 34 61 15.9 34 34 SSE 12 19 29.85 1011 10 16 0.00 0.00
4:35 pm 16:35 Sunny 94 34.2 61 16.1 34 34 SE 10 17 29.85 1011 10 16 0.00 0.00
4:55 pm 16:55 Sunny 94 34.2 61 16 34 34 SSE 13 20 29.85 1011 10 16 0.00 0.00
5:15 pm 17:15 Sunny 92 33.3 61 16.2 36 36 SE 12 19 29.85 1011 10 16 0.00 0.00
5:35 pm 17:35 Partly Cloudy 93 34 60 15.4 33 33 SE 12 19 29.85 1011 10 16 0.00 0.00
5:55 pm 17:55 Sunny 93 33.7 60 15.7 34 34 SSE 14 22 29.85 1011 10 16 0.00 0.00
6:15 pm 18:15 Sunny 92 33.2 61 16 36 36 SSE 13 20 29.85 1011 10 16 0.00 0.00
6:35 pm 18:35 Sunny 92 33.1 62 16.5 37 37 SSE 13 20 29.85 1011 10 16 0.00 0.00
6:55 pm 18:55 Partly Cloudy 91 32.5 62 16.7 39 39 SSE 14 22 29.83 1010 10 16 0.00 0.00
7:15 pm 19:15 Mostly Cloudy 91 32.5 62 16.9 39 39 SSE 13 20 29.83 1010 10 16 0.00 0.00
7:35 pm 19:35 Partly Cloudy 88 31 64 17.5 44 44 SSE 8 13 29.83 1010 10 16 0.00 0.00
7:55 pm 19:55 Mostly Cloudy 89 31.6 63 17.4 43 43 SSE 9 15 29.83 1010 10 16 0.00 0.00
8:15 pm 20:15 Cloudy 88 31.2 63 17.2 43 43 SSE 10 17 29.85 1011 10 16 0.00 0.00
8:35 pm 20:35 Mostly Cloudy 86 30.1 63 17.2 46 46 SE 8 13 29.88 1012 10 16 0.00 0.00
8:55 pm 20:55 Mostly Cloudy 85 29.3 64 18 51 51 SSE 9 15 29.88 1012 10 16 0.00 0.00
9:15 pm 21:15 Partly Cloudy 83 28.5 63 17.2 50 50 SE 9 15 29.88 1012 10 16 0.00 0.00
9:35 pm 21:35 Partly Cloudy 82 27.6 64 17.5 54 54 SSE 9 15 29.88 1012 10 16 0.00 0.00
9:55 pm 21:55 Clear 80 26.8 63 17.2 56 56 S 9 15 29.91 1013 10 16 0.00 0.00
10:15 pm 22:15 Clear 78 25.6 63 17.2 60 60 SSE 6 9 29.91 1013 10 16 0.00 0.00
10:35 pm 22:35 Clear 77 25 63 17.3 62 62 S 5 7 29.91 1013 10 16 0.00 0.00
10:55 pm 22:55 Clear 74 23.2 64 17.8 72 72 ENE 10 17 29.94 1014 10 16 0.00 0.00
11:15 pm 23:15 Clear 77 25.2 63 17.2 61 61 ENE 8 13 29.91 1013 10 16 0.00 0.00
11:35 pm 23:35 Clear 74 23.4 64 17.7 70 70 ENE 7 11 29.94 1014 10 16 0.00 0.00
11:55 pm 23:55 Clear 75 23.9 64 17.5 68 68 ESE 8 13 29.91 1013 10 16 0.00 0.00

Powered by AerisWeather